Regional Weather Roundup
Issued by NWS

Home | Current Version | Previous Version | Text Only | Print | Product List | Glossary Off
Versions: 1 2 3 4 5 6 7 8 9 10 11 12 13 14 15 16 17 18 19 20 21 22 23 24 25 26 27 28 29 30 31 32 33 34 35 36 37 38 39 40 41 42 43 44 45 46 47 48 49 50

000
ASUS43 KBIS 201502
RWRND

NORTH DAKOTA REGIONAL WEATHER ROUNDUP
NATIONAL WEATHER SERVICE BISMARCK ND
1000 AM CDT FRI OCT 20 2017

NOTE: "FAIR" INDICATES FEW OR NO CLOUDS BELOW 12,000 FEET WITH NO
SIGNIFICANT WEATHER AND/OR OBSTRUCTIONS TO VISIBILITY.


NDZ001>003-009>011-017-201600-
NORTHWEST NORTH DAKOTA

CITY           SKY/WX    TMP DP  RH WIND       PRES   REMARKS
WILLISTON      SUNNY     44  35  70 SW5       29.37F
MINOT          CLOUDY    44  38  79 CALM      29.38F
MINOT AFB      CLOUDY    41  36  82 CALM      29.37F
$$

NDZ018>021-031>035-040>046-201600-
SOUTHWEST NORTH DAKOTA

CITY           SKY/WX    TMP DP  RH WIND       PRES   REMARKS
BISMARCK       SUNNY     60  49  66 SE10      29.45F
DICKINSON      SUNNY     57  30  35 SW7       29.40F
GARRISON         N/A     48  45  89 S5        29.41F
HETTINGER ARPT SUNNY     57  29  34 SE5       29.46F
$$

NDZ004>008-012>016-024-026-027-054-201600-
NORTHEAST NORTH DAKOTA

CITY           SKY/WX    TMP DP  RH WIND       PRES   REMARKS
GRAND FORKS    MOSUNNY   59  50  72 S18       29.54F
GRND FRKS AFB    N/A     56  49  76 S16       29.53F
DEVILS LAKE    CLOUDY    51  47  86 SE12      29.48F
$$

NDZ022-023-025-028>030-036>039-047>053-201600-
SOUTHEAST NORTH DAKOTA

CITY           SKY/WX    TMP DP  RH WIND       PRES   REMARKS
FARGO          SUNNY     61  49  64 S21G31    29.59F
JAMESTOWN      SUNNY     56  47  71 S18       29.51F
$$





USA.gov is the U.S. government's official web portal to all federal, state and local government web resources and services.